When you browse on this site, cookies collect data to enhance your experience and personalize the content and advertising you see.
Visit our Privacy Policy to learn more. By continuing to use the site, you agree to this use of cookies and data.
  • In United Kingdom
  • List of Countries
  • For 7 days
  • Water Temperature
  • Weather Map
  • Weather Widgets
  • user-avatar
    Login

    Hourly Weather Sarafovo

    Today, 11 December, Wednesday

    Time Temperature Precipitation Wind Pressure Humidity
    00:00 +9°C° 0 mm 1 mps 758 mmHg 83%
    01:00 +7°C° 0 mm 2 mps 758 mmHg 84%
    02:00 +7°C° 0 mm 2 mps 759 mmHg 84%
    03:00 +7°C° 0 mm 2 mps 758 mmHg 86%
    04:00 +5°C° 0 mm 3 mps 758 mmHg 87%
    05:00 +5°C° 0 mm 3 mps 758 mmHg 89%
    06:00 +5°C° 0 mm 3 mps 758 mmHg 89%
    07:00 +5°C° 0 mm 3 mps 758 mmHg 89%
    08:00 +5°C° 0 mm 3 mps 759 mmHg 88%
    09:00 +6°C° 0.1 mm 4 mps 759 mmHg 86%
    10:00 +7°C° 0.1 mm 4 mps 759 mmHg 83%
    11:00 +10°C° 0.1 mm 4 mps 759 mmHg 80%
    12:00 +9°C° 0.1 mm 5 mps 758 mmHg 80%
    13:00 +10°C° 0.1 mm 6 mps 758 mmHg 79%
    14:00 +10°C° 0 mm 7 mps 758 mmHg 79%
    15:00 +10°C° 0.1 mm 6 mps 757 mmHg 80%
    16:00 +9°C° 0.1 mm 6 mps 757 mmHg 81%
    17:00 +9°C° 0.1 mm 5 mps 757 mmHg 82%
    18:00 +9°C° 0.2 mm 5 mps 757 mmHg 83%
    19:00 +9°C° 0.2 mm 5 mps 757 mmHg 85%
    20:00 +8°C° 0.2 mm 5 mps 757 mmHg 86%
    21:00 +8°C° 0.1 mm 5 mps 757 mmHg 88%
    22:00 +8°C° 0.1 mm 5 mps 756 mmHg 89%
    23:00 +8°C° 0.1 mm 4 mps 756 mmHg 90%

    Tomorrow, 12 December, Thursday

    Time Temperature Precipitation Wind Pressure Humidity
    00:00 +8°C° 0.1 mm 4 mps 756 mmHg 90%
    01:00 +8°C° 0.1 mm 4 mps 755 mmHg 91%
    02:00 +8°C° 0.1 mm 4 mps 755 mmHg 91%
    03:00 +8°C° 0 mm 4 mps 755 mmHg 92%
    04:00 +8°C° 0 mm 4 mps 754 mmHg 92%
    05:00 +8°C° 0 mm 4 mps 754 mmHg 93%
    06:00 +8°C° 0 mm 4 mps 754 mmHg 92%
    07:00 +8°C° 0 mm 4 mps 754 mmHg 92%
    08:00 +8°C° 0 mm 4 mps 754 mmHg 91%
    09:00 +10°C° 0 mm 4 mps 754 mmHg 88%
    10:00 +11°C° 0 mm 4 mps 753 mmHg 85%
    11:00 +11°C° 0 mm 4 mps 753 mmHg 82%
    12:00 +12°C° 0 mm 4 mps 753 mmHg 81%
    13:00 +12°C° 0 mm 4 mps 752 mmHg 79%
    14:00 +13°C° 0 mm 4 mps 752 mmHg 78%
    15:00 +12°C° 0 mm 4 mps 752 mmHg 83%
    16:00 +11°C° 0 mm 3 mps 752 mmHg 87%
    17:00 +10°C° 0 mm 3 mps 751 mmHg 92%
    18:00 +10°C° 0 mm 3 mps 752 mmHg 92%
    19:00 +10°C° 0 mm 3 mps 752 mmHg 93%
    20:00 +10°C° 0 mm 2 mps 752 mmHg 93%
    21:00 +10°C° 0 mm 2 mps 751 mmHg 93%
    22:00 +10°C° 0 mm 2 mps 751 mmHg 93%
    23:00 +9°C° 0 mm 2 mps 751 mmHg 93%

    Day after tomorrow, 13 December, Friday

    Time Temperature Precipitation Wind Pressure Humidity
    00:00 +9°C° 0 mm 2 mps 751 mmHg 93%
    01:00 +9°C° 0 mm 2 mps 750 mmHg 94%
    02:00 +10°C° 0 mm 1 mps 750 mmHg 94%
    03:00 +10°C° 0 mm 1 mps 750 mmHg 94%
    04:00 +10°C° 0 mm 1 mps 750 mmHg 94%
    05:00 +9°C° 0 mm 0 mps 749 mmHg 93%
    06:00 +9°C° 0 mm 0 mps 749 mmHg 93%
    07:00 +9°C° 0 mm 0 mps 749 mmHg 93%
    08:00 +9°C° 0 mm 0 mps 750 mmHg 93%
    09:00 +11°C° 0 mm 1 mps 749 mmHg 89%
    10:00 +12°C° 0 mm 1 mps 749 mmHg 84%
    11:00 +13°C° 0 mm 1 mps 749 mmHg 80%
    12:00 +13°C° 0 mm 1 mps 749 mmHg 78%
    13:00 +13°C° 0 mm 2 mps 748 mmHg 76%
    14:00 +14°C° 0 mm 2 mps 748 mmHg 75%
    15:00 +13°C° 0.1 mm 2 mps 747 mmHg 79%
    16:00 +12°C° 0.1 mm 2 mps 747 mmHg 83%
    17:00 +10°C° 0.1 mm 2 mps 747 mmHg 87%
    18:00 +10°C° 0 mm 2 mps 747 mmHg 87%
    19:00 +10°C° 0 mm 3 mps 747 mmHg 87%
    20:00 +10°C° 0 mm 3 mps 747 mmHg 87%
    21:00 +10°C° 0 mm 3 mps 747 mmHg 87%
    22:00 +10°C° 0 mm 3 mps 747 mmHg 87%
    23:00 +10°C° 0 mm 4 mps 747 mmHg 87%

    14 December, Saturday

    Time Temperature Precipitation Wind Pressure Humidity
    00:00 +10°C° 0 mm 3 mps 747 mmHg 87%
    01:00 +9°C° 0 mm 3 mps 747 mmHg 87%
    02:00 +9°C° 0 mm 3 mps 747 mmHg 87%
    03:00 +9°C° 0 mm 3 mps 746 mmHg 88%
    04:00 +9°C° 0 mm 3 mps 746 mmHg 88%
    05:00 +9°C° 0 mm 3 mps 746 mmHg 89%
    06:00 +9°C° 0 mm 3 mps 746 mmHg 89%
    07:00 +9°C° 0 mm 3 mps 747 mmHg 89%
    08:00 +9°C° 0 mm 3 mps 747 mmHg 89%
    09:00 +10°C° 0 mm 3 mps 748 mmHg 82%
    10:00 +12°C° 0 mm 4 mps 748 mmHg 75%
    11:00 +14°C° 0 mm 4 mps 748 mmHg 69%
    12:00 +14°C° 0 mm 4 mps 749 mmHg 67%
    13:00 +15°C° 0 mm 4 mps 749 mmHg 66%
    14:00 +15°C° 0 mm 4 mps 749 mmHg 64%
    15:00 +14°C° 0 mm 3 mps 750 mmHg 70%
    16:00 +13°C° 0 mm 3 mps 750 mmHg 75%
    17:00 +13°C° 0 mm 2 mps 751 mmHg 80%
    18:00 +13°C° 0 mm 2 mps 751 mmHg 80%
    19:00 +13°C° 0 mm 1 mps 752 mmHg 79%
    20:00 +13°C° 0 mm 1 mps 753 mmHg 79%
    21:00 +13°C° 0 mm 1 mps 754 mmHg 78%
    22:00 +13°C° 0 mm 1 mps 754 mmHg 78%
    23:00 +12°C° 0 mm 0 mps 755 mmHg 77%

    15 December, Sunday

    Time Temperature Precipitation Wind Pressure Humidity
    00:00 +13°C° 0 mm 1 mps 756 mmHg 78%
    01:00 +12°C° 0 mm 1 mps 756 mmHg 79%
    02:00 +12°C° 0 mm 2 mps 757 mmHg 81%
    03:00 +10°C° 0 mm 2 mps 757 mmHg 82%
    04:00 +10°C° 0 mm 2 mps 758 mmHg 84%
    05:00 +10°C° 0 mm 2 mps 758 mmHg 85%
    06:00 +9°C° 0 mm 2 mps 759 mmHg 85%
    07:00 +9°C° 0 mm 2 mps 759 mmHg 86%
    08:00 +10°C° 0 mm 1 mps 760 mmHg 86%
    09:00 +11°C° 0 mm 1 mps 760 mmHg 81%
    10:00 +12°C° 0 mm 1 mps 761 mmHg 76%
    11:00 +13°C° 0 mm 1 mps 761 mmHg 72%
    12:00 +14°C° 0 mm 1 mps 761 mmHg 69%
    13:00 +15°C° 0 mm 1 mps 761 mmHg 67%
    14:00 +15°C° 0 mm 1 mps 761 mmHg 65%
    15:00 +14°C° 0 mm 1 mps 762 mmHg 71%
    16:00 +13°C° 0 mm 1 mps 762 mmHg 76%
    17:00 +12°C° 0 mm 1 mps 762 mmHg 82%
    18:00 +12°C° 0 mm 1 mps 762 mmHg 84%
    19:00 +11°C° 0 mm 1 mps 763 mmHg 86%
    20:00 +11°C° 0 mm 1 mps 763 mmHg 88%
    21:00 +11°C° 0 mm 1 mps 763 mmHg 88%
    22:00 +10°C° 0 mm 1 mps 764 mmHg 89%
    23:00 +10°C° 0 mm 1 mps 764 mmHg 89%

    16 December, Monday

    Time Temperature Precipitation Wind Pressure Humidity
    00:00 +10°C° 0 mm 1 mps 764 mmHg 89%
    01:00 +10°C° 0 mm 1 mps 764 mmHg 89%
    02:00 +10°C° 0 mm 1 mps 764 mmHg 89%
    03:00 +10°C° 0 mm 1 mps 764 mmHg 89%
    04:00 +10°C° 0 mm 1 mps 764 mmHg 89%
    05:00 +9°C° 0 mm 1 mps 764 mmHg 89%
    06:00 +9°C° 0 mm 1 mps 764 mmHg 89%
    07:00 +9°C° 0 mm 1 mps 765 mmHg 89%
    08:00 +9°C° 0 mm 1 mps 765 mmHg 89%
    09:00 +11°C° 0 mm 1 mps 765 mmHg 84%
    10:00 +12°C° 0 mm 1 mps 766 mmHg 79%
    11:00 +14°C° 0 mm 1 mps 766 mmHg 74%
    12:00 +14°C° 0 mm 1 mps 766 mmHg 72%
    13:00 +15°C° 0 mm 1 mps 765 mmHg 70%
    14:00 +16°C° 0 mm 1 mps 765 mmHg 68%
    15:00 +14°C° 0 mm 1 mps 765 mmHg 73%
    16:00 +13°C° 0 mm 1 mps 765 mmHg 78%
    17:00 +12°C° 0 mm 1 mps 765 mmHg 84%
    18:00 +12°C° 0 mm 1 mps 765 mmHg 85%
    19:00 +12°C° 0 mm 1 mps 765 mmHg 86%
    20:00 +11°C° 0 mm 1 mps 765 mmHg 87%
    21:00 +11°C° 0 mm 1 mps 766 mmHg 87%
    22:00 +11°C° 0 mm 1 mps 766 mmHg 87%
    23:00 +10°C° 0 mm 1 mps 766 mmHg 87%
    Show more